When you browse on this site, cookies collect data to enhance your experience and personalize the content and advertising you see.
Visit our Privacy Policy to learn more. By continuing to use the site, you agree to this use of cookies and data.
  • In Österreich
  • Länderverzeichnis
  • Für 7 Tage
  • Wassertemperatur
  • Wetterkarte
  • News
  • Widgets
  • user-avatar
    Anmelden

    Stündliche Wetter Kribi

    Heute, 12 Dezember, Donnerstag

    Zeit Temperatur Niederschläge Wind Luftdruck Luftfeuchtigkeit
    00:00 +27°C° 0 mm 2 m/S 757 mmHg 90%
    01:00 +27°C° 0 mm 3 m/S 756 mmHg 92%
    02:00 +27°C° 0.1 mm 3 m/S 756 mmHg 93%
    03:00 +27°C° 0.1 mm 2 m/S 756 mmHg 94%
    04:00 +27°C° 0.1 mm 2 m/S 756 mmHg 94%
    05:00 +27°C° 0.5 mm 2 m/S 756 mmHg 94%
    06:00 +27°C° 0.5 mm 2 m/S 757 mmHg 94%
    07:00 +27°C° 0 mm 2 m/S 757 mmHg 93%
    08:00 +28°C° 1.3 mm 2 m/S 757 mmHg 87%
    09:00 +30°C° 1.3 mm 2 m/S 757 mmHg 81%
    10:00 +31°C° 1.3 mm 2 m/S 758 mmHg 75%
    11:00 +31°C° 0.5 mm 2 m/S 757 mmHg 71%
    12:00 +32°C° 0.5 mm 2 m/S 756 mmHg 68%
    13:00 +32°C° 0.5 mm 2 m/S 755 mmHg 65%
    14:00 +32°C° 0.3 mm 2 m/S 755 mmHg 69%
    15:00 +31°C° 0.3 mm 2 m/S 755 mmHg 74%
    16:00 +30°C° 0.3 mm 3 m/S 754 mmHg 79%
    17:00 +29°C° 0 mm 3 m/S 755 mmHg 82%
    18:00 +28°C° 0 mm 3 m/S 755 mmHg 85%
    19:00 +28°C° 0 mm 3 m/S 756 mmHg 88%
    20:00 +27°C° 0 mm 3 m/S 756 mmHg 89%
    21:00 +27°C° 0 mm 3 m/S 757 mmHg 90%
    22:00 +27°C° 0 mm 3 m/S 757 mmHg 91%
    23:00 +27°C° 0 mm 3 m/S 757 mmHg 92%

    Morgen, 13 Dezember, Freitag

    Zeit Temperatur Niederschläge Wind Luftdruck Luftfeuchtigkeit
    00:00 +27°C° 0 mm 3 m/S 756 mmHg 93%
    01:00 +27°C° 0 mm 2 m/S 756 mmHg 94%
    02:00 +26°C° 0 mm 2 m/S 756 mmHg 94%
    03:00 +26°C° 0 mm 2 m/S 756 mmHg 95%
    04:00 +26°C° 0 mm 2 m/S 756 mmHg 95%
    05:00 +26°C° 0.2 mm 2 m/S 756 mmHg 95%
    06:00 +26°C° 0.2 mm 2 m/S 757 mmHg 94%
    07:00 +26°C° 0.2 mm 1 m/S 758 mmHg 94%
    08:00 +28°C° 0.5 mm 1 m/S 758 mmHg 87%
    09:00 +30°C° 0.5 mm 1 m/S 758 mmHg 80%
    10:00 +32°C° 0.5 mm 1 m/S 758 mmHg 74%
    11:00 +32°C° 0.4 mm 1 m/S 757 mmHg 74%
    12:00 +32°C° 0.4 mm 2 m/S 757 mmHg 74%
    13:00 +31°C° 0.4 mm 2 m/S 756 mmHg 74%
    14:00 +31°C° 0.3 mm 2 m/S 756 mmHg 76%
    15:00 +31°C° 0.3 mm 3 m/S 755 mmHg 78%
    16:00 +30°C° 0.3 mm 3 m/S 755 mmHg 80%
    17:00 +29°C° 0.4 mm 3 m/S 755 mmHg 84%
    18:00 +28°C° 0.4 mm 3 m/S 756 mmHg 88%
    19:00 +27°C° 0.4 mm 3 m/S 756 mmHg 92%
    20:00 +27°C° 0 mm 3 m/S 757 mmHg 92%
    21:00 +27°C° 0 mm 3 m/S 757 mmHg 92%
    22:00 +27°C° 0 mm 4 m/S 758 mmHg 92%
    23:00 +27°C° 0 mm 4 m/S 757 mmHg 93%

    übermorgen, 14 Dezember, Samstag

    Zeit Temperatur Niederschläge Wind Luftdruck Luftfeuchtigkeit
    00:00 +27°C° 0 mm 3 m/S 757 mmHg 93%
    01:00 +27°C° 0 mm 3 m/S 757 mmHg 93%
    02:00 +27°C° 0 mm 3 m/S 756 mmHg 94%
    03:00 +27°C° 0 mm 3 m/S 756 mmHg 94%
    04:00 +26°C° 0 mm 2 m/S 756 mmHg 95%
    05:00 +27°C° 0.6 mm 2 m/S 757 mmHg 94%
    06:00 +27°C° 0.6 mm 2 m/S 757 mmHg 94%
    07:00 +27°C° 0.6 mm 2 m/S 758 mmHg 94%
    08:00 +28°C° 0 mm 2 m/S 758 mmHg 88%
    09:00 +29°C° 0 mm 3 m/S 758 mmHg 83%
    10:00 +30°C° 0 mm 3 m/S 758 mmHg 77%
    11:00 +31°C° 0.1 mm 3 m/S 758 mmHg 74%
    12:00 +32°C° 0.1 mm 4 m/S 757 mmHg 71%
    13:00 +33°C° 0.1 mm 4 m/S 757 mmHg 68%
    14:00 +32°C° 0.1 mm 4 m/S 756 mmHg 70%
    15:00 +32°C° 0.1 mm 4 m/S 756 mmHg 73%
    16:00 +30°C° 0.1 mm 4 m/S 756 mmHg 75%
    17:00 +29°C° 0 mm 4 m/S 756 mmHg 79%
    18:00 +28°C° 0 mm 3 m/S 756 mmHg 84%
    19:00 +28°C° 0 mm 3 m/S 757 mmHg 88%
    20:00 +27°C° 0 mm 3 m/S 757 mmHg 89%
    21:00 +27°C° 0 mm 3 m/S 757 mmHg 90%
    22:00 +27°C° 0 mm 3 m/S 758 mmHg 91%
    23:00 +27°C° 0 mm 3 m/S 757 mmHg 92%

    15 Dezember, Sonntag

    Zeit Temperatur Niederschläge Wind Luftdruck Luftfeuchtigkeit
    00:00 +27°C° 0 mm 3 m/S 757 mmHg 94%
    01:00 +26°C° 0 mm 3 m/S 757 mmHg 95%
    02:00 +26°C° 0.1 mm 3 m/S 756 mmHg 95%
    03:00 +26°C° 0.1 mm 2 m/S 756 mmHg 95%
    04:00 +26°C° 0.1 mm 2 m/S 756 mmHg 95%
    05:00 +26°C° 0.5 mm 2 m/S 756 mmHg 94%
    06:00 +26°C° 0.5 mm 2 m/S 757 mmHg 94%
    07:00 +27°C° 0.5 mm 1 m/S 757 mmHg 93%
    08:00 +28°C° 0 mm 1 m/S 757 mmHg 85%
    09:00 +30°C° 0 mm 2 m/S 758 mmHg 78%
    10:00 +32°C° 0 mm 2 m/S 758 mmHg 70%
    11:00 +32°C° 0.1 mm 2 m/S 757 mmHg 69%
    12:00 +32°C° 0.1 mm 2 m/S 756 mmHg 67%
    13:00 +33°C° 0.1 mm 3 m/S 756 mmHg 66%
    14:00 +33°C° 0.1 mm 3 m/S 755 mmHg 68%
    15:00 +31°C° 0.1 mm 3 m/S 755 mmHg 70%
    16:00 +31°C° 0.1 mm 3 m/S 754 mmHg 72%
    17:00 +30°C° 0 mm 3 m/S 754 mmHg 77%
    18:00 +29°C° 0 mm 3 m/S 755 mmHg 82%
    19:00 +28°C° 0 mm 3 m/S 755 mmHg 87%
    20:00 +28°C° 0 mm 3 m/S 756 mmHg 89%
    21:00 +27°C° 0 mm 3 m/S 756 mmHg 90%
    22:00 +27°C° 0 mm 3 m/S 756 mmHg 91%
    23:00 +27°C° 0 mm 3 m/S 756 mmHg 92%

    16 Dezember, Montag

    Zeit Temperatur Niederschläge Wind Luftdruck Luftfeuchtigkeit
    00:00 +27°C° 0 mm 3 m/S 756 mmHg 93%
    01:00 +27°C° 0 mm 3 m/S 756 mmHg 94%
    02:00 +26°C° 0.1 mm 3 m/S 756 mmHg 95%
    03:00 +26°C° 0.1 mm 2 m/S 755 mmHg 95%
    04:00 +26°C° 0.1 mm 2 m/S 755 mmHg 96%
    05:00 +26°C° 0.1 mm 2 m/S 756 mmHg 95%
    06:00 +26°C° 0.1 mm 2 m/S 756 mmHg 94%
    07:00 +26°C° 0.1 mm 2 m/S 756 mmHg 93%
    08:00 +28°C° 0 mm 1 m/S 756 mmHg 83%
    09:00 +31°C° 0 mm 1 m/S 756 mmHg 73%
    10:00 +33°C° 0 mm 1 m/S 757 mmHg 63%
    11:00 +34°C° 0 mm 2 m/S 756 mmHg 61%
    12:00 +35°C° 0 mm 2 m/S 755 mmHg 59%
    13:00 +35°C° 0 mm 3 m/S 754 mmHg 56%
    14:00 +34°C° 0.2 mm 3 m/S 754 mmHg 62%
    15:00 +33°C° 0.2 mm 4 m/S 753 mmHg 67%
    16:00 +32°C° 0.2 mm 4 m/S 753 mmHg 73%
    17:00 +30°C° 0.1 mm 4 m/S 753 mmHg 78%
    18:00 +29°C° 0.1 mm 4 m/S 753 mmHg 84%
    19:00 +28°C° 0.1 mm 4 m/S 754 mmHg 89%
    20:00 +28°C° 0 mm 4 m/S 754 mmHg 90%
    21:00 +27°C° 0 mm 3 m/S 755 mmHg 91%
    22:00 +27°C° 0 mm 3 m/S 755 mmHg 92%
    23:00 +27°C° 0 mm 3 m/S 755 mmHg 92%

    17 Dezember, Dienstag

    Zeit Temperatur Niederschläge Wind Luftdruck Luftfeuchtigkeit
    00:00 +27°C° 0 mm 3 m/S 755 mmHg 92%
    01:00 +27°C° 0 mm 3 m/S 755 mmHg 92%
    02:00 +27°C° 0.2 mm 3 m/S 755 mmHg 92%
    03:00 +27°C° 0.2 mm 3 m/S 754 mmHg 92%
    04:00 +27°C° 0.2 mm 3 m/S 754 mmHg 91%
    05:00 +27°C° 0.6 mm 2 m/S 755 mmHg 92%
    06:00 +27°C° 0.6 mm 2 m/S 755 mmHg 92%
    07:00 +27°C° 0.6 mm 2 m/S 755 mmHg 92%
    08:00 +28°C° 0.3 mm 2 m/S 756 mmHg 85%
    09:00 +30°C° 0.3 mm 2 m/S 756 mmHg 78%
    10:00 +31°C° 0.3 mm 2 m/S 756 mmHg 72%
    11:00 +32°C° 0.1 mm 2 m/S 755 mmHg 70%
    12:00 +33°C° 0.1 mm 3 m/S 755 mmHg 68%
    13:00 +33°C° 0.1 mm 3 m/S 754 mmHg 66%
    14:00 +33°C° 0.1 mm 3 m/S 754 mmHg 67%
    15:00 +33°C° 0.1 mm 4 m/S 754 mmHg 68%
    16:00 +32°C° 0.1 mm 4 m/S 753 mmHg 69%
    17:00 +30°C° 0 mm 4 m/S 754 mmHg 75%
    18:00 +29°C° 0 mm 3 m/S 754 mmHg 80%
    19:00 +28°C° 0 mm 3 m/S 755 mmHg 85%
    20:00 +28°C° 0 mm 3 m/S 755 mmHg 85%
    21:00 +28°C° 0 mm 4 m/S 756 mmHg 86%
    22:00 +28°C° 0 mm 4 m/S 756 mmHg 86%
    23:00 +28°C° 0 mm 4 m/S 756 mmHg 88%
    Mehr zeigen